Home   Weather   Mesa   Past weeks
Flag for USA

Past Weather in Mesa, Arizona, USA — Yesterday and Last 2 Weeks

Now
56 °F

Scattered clouds.


Feels Like: 55 °F
Forecast: 75 / 58 °F
Wind: 5 mph from Southeast

Location: Mesa / Falcon Field

Current Time: May 23, 2019 at 8:14:20 am

Latest Report: May 23, 2019 at 6:54 am


Visibility: 10 mi

Pressure: 29.85 "Hg

Humidity: 75%

Dew Point: 48 °F

Location of MesaLocation

Past Weather in Mesa — Graph

°F

Mesa Temperature Yesterday

Maximum temperature yesterday: 73 °F (at 2:54 pm)
Minimum temperature yesterday: 60 °F (at 4:54 am)
Average temperature yesterday: 67 °F

High & Low Weather Summary for the Past Weeks

 TemperatureHumidityPressure
High97 °F (May 15, 3:54 pm)80% (May 23, 4:54 am)29.93 "Hg (May 23, 4:54 am)
Low53 °F (May 23, 4:54 am)6% (May 16, 1:54 pm)29.53 "Hg (May 21, 6:54 pm)
Average74 °F30%29.74 "Hg
* Reported May 8 6:54 am — May 23 6:54 am, Mesa. Weather by CustomWeather, © 2019

Note: Actual official high and low records may vary slightly from our data, if they occured in-between our weather recording intervals... More about our weather records

Advertising

Mesa Weather History for the Previous 24 Hours

Scroll right to see more
 ConditionsComfort  
Time TempWeatherWind HumidityBarometerVisibility
6:54 am
Thu, May 23
56 °FScattered clouds.5 mph75%29.85 "Hg10 mi
5:54 am55 °FLight rain. Mostly cloudy.8 mph77%29.81 "Hg10 mi
4:54 am53 °FLight rain. Mostly cloudy.6 mph80%29.78 "Hg10 mi
3:54 am57 °FMostly cloudy.12 mph62%29.77 "Hg10 mi
2:54 am60 °FOvercast.13 mph49%29.72 "Hg10 mi
1:54 am62 °FOvercast.17 mph41%29.70 "Hg10 mi
12:54 am65 °FMostly cloudy.8 mph36%29.68 "Hg10 mi
11:54 pm
Wed, May 22
65 °FOvercast.5 mph36%29.67 "Hg10 mi
10:54 pm67 °FOvercast.15 mph29%29.66 "Hg10 mi
9:54 pm68 °FOvercast.No wind30%29.63 "Hg10 mi
8:54 pm68 °FPassing clouds.No wind26%29.62 "Hg10 mi
7:54 pm70 °FPassing clouds.3 mph23%29.60 "Hg10 mi
6:54 pm71 °FPartly sunny.6 mph23%29.59 "Hg10 mi
5:54 pm71 °FPartly sunny.No wind24%29.59 "Hg10 mi
4:54 pm72 °FMostly cloudy.9 mph24%29.61 "Hg10 mi
3:54 pm72 °FPartly sunny.8 mph24%29.62 "Hg10 mi
2:54 pm73 °FPartly sunny.14 mph23%29.63 "Hg10 mi
1:54 pm71 °FOvercast.15 mph25%29.64 "Hg10 mi
12:54 pm71 °FPassing clouds.17 mph28%29.64 "Hg10 mi
11:54 am71 °FSunny.17 mph29%29.65 "Hg10 mi
10:54 am67 °FPartly sunny.15 mph35%29.66 "Hg10 mi
9:54 am67 °FSunny.16 mph35%29.66 "Hg10 mi
8:54 am63 °FSunny.13 mph40%29.65 "Hg10 mi
Weather by CustomWeather, © 2019

See weather overview